OAS8567 SKCL-SKBO

Flight info

Callsign OAS8567
Flight time 0h 30m
Altitude 23000
Route ULQ1K ULQ W1 TOLIM TOLIM5W
Aircraft A20N/M-SDE2E3FGHIRWXY/LB1

Departure

Time 2026-04-24 16:24
Airport Alfonso Bonilla Aragon International Airport (SKCL)

Arrival

Time 2026-04-24 16:54
Airport El Dorado International Airport (SKBO)
Time Latitude Longitude Altitude Speed Heading
2026-04-24 16:00 3.53481 -76.38629 3164 ft 0 kts 312°
2026-04-24 16:14 3.53464 -76.38610 3164 ft 3 kts 312°
2026-04-24 16:14 3.53451 -76.38596 3164 ft 3 kts 312°
2026-04-24 16:14 3.53449 -76.38566 3166 ft 3 kts 192°
2026-04-24 16:15 3.53452 -76.38565 3167 ft 0 kts 177°
2026-04-24 16:18 3.53376 -76.38554 3164 ft 7 kts 134°
2026-04-24 16:18 3.53345 -76.38520 3163 ft 7 kts 147°
2026-04-24 16:19 3.53251 -76.38519 3163 ft 7 kts 188°
2026-04-24 16:19 3.53202 -76.38528 3163 ft 7 kts 190°
2026-04-24 16:20 3.53096 -76.38547 3163 ft 8 kts 191°
2026-04-24 16:20 3.52986 -76.38548 3164 ft 7 kts 147°
2026-04-24 16:20 3.52968 -76.38520 3162 ft 0 kts 108°
2026-04-24 16:22 3.52963 -76.38492 3162 ft 15 kts 98°
2026-04-24 16:22 3.53198 -76.38365 3161 ft 43 kts 10°
2026-04-24 16:22 3.53681 -76.38282 3166 ft 97 kts
2026-04-24 16:23 3.54513 -76.38138 3168 ft 145 kts
2026-04-24 16:23 3.55593 -76.37957 3407 ft 159 kts
2026-04-24 16:23 3.56795 -76.37753 3364 ft 189 kts
2026-04-24 16:24 3.59232 -76.37323 4583 ft 171 kts
2026-04-24 16:24 3.60428 -76.37114 4940 ft 182 kts
2026-04-24 16:24 3.61737 -76.36890 5167 ft 200 kts
2026-04-24 16:24 3.63159 -76.36644 5419 ft 213 kts 10°
2026-04-24 16:25 3.64625 -76.36283 5762 ft 223 kts 15°
2026-04-24 16:25 3.66173 -76.35816 5959 ft 244 kts 17°
2026-04-24 16:25 3.67866 -76.35285 6167 ft 264 kts 17°
2026-04-24 16:26 3.71509 -76.34138 7038 ft 281 kts 17°
2026-04-24 16:26 3.73389 -76.33549 7566 ft 285 kts 17°
2026-04-24 16:26 3.77211 -76.32352 8732 ft 290 kts 17°
2026-04-24 16:27 3.79147 -76.31747 9294 ft 293 kts 17°
2026-04-24 16:27 3.81107 -76.31134 9909 ft 295 kts 17°
2026-04-24 16:27 3.83101 -76.30511 10284 ft 306 kts 17°
2026-04-24 16:27 3.85185 -76.29860 10511 ft 321 kts 17°
2026-04-24 16:28 3.87366 -76.29179 10726 ft 335 kts 17°
2026-04-24 16:28 3.89638 -76.28468 10933 ft 349 kts 17°
2026-04-24 16:28 3.94418 -76.26974 11377 ft 369 kts 17°
2026-04-24 16:29 3.96886 -76.26203 11750 ft 373 kts 17°
2026-04-24 16:29 3.99342 -76.25435 12145 ft 376 kts 17°
2026-04-24 16:29 4.04365 -76.23843 12967 ft 381 kts 19°
2026-04-24 16:30 4.08869 -76.21039 13765 ft 389 kts 46°
2026-04-24 16:30 4.10474 -76.18855 14136 ft 391 kts 61°
2026-04-24 16:30 4.11684 -76.16408 14533 ft 393 kts 66°
2026-04-24 16:31 4.12728 -76.13874 14916 ft 395 kts 69°
2026-04-24 16:31 4.13692 -76.11293 15345 ft 396 kts 70°
2026-04-24 16:31 4.14634 -76.08692 15691 ft 399 kts 70°
2026-04-24 16:31 4.15589 -76.06069 16081 ft 402 kts 70°
2026-04-24 16:32 4.16562 -76.03442 16487 ft 404 kts 70°
2026-04-24 16:32 4.17559 -76.00797 16860 ft 407 kts 69°
2026-04-24 16:32 4.18574 -75.98141 17253 ft 408 kts 69°
2026-04-24 16:32 4.19586 -75.95511 17577 ft 412 kts 69°
2026-04-24 16:33 4.20622 -75.92831 17958 ft 413 kts 69°
2026-04-24 16:33 4.21672 -75.90138 18273 ft 417 kts 68°
2026-04-24 16:33 4.22736 -75.87433 18628 ft 417 kts 68°
2026-04-24 16:33 4.23805 -75.84719 18868 ft 420 kts 68°
2026-04-24 16:34 4.24879 -75.81992 19171 ft 420 kts 68°
2026-04-24 16:34 4.25954 -75.79261 19422 ft 423 kts 68°
2026-04-24 16:34 4.27033 -75.76520 19695 ft 424 kts 68°
2026-04-24 16:34 4.28118 -75.73762 19900 ft 427 kts 68°
2026-04-24 16:35 4.29207 -75.70994 20163 ft 427 kts 68°
2026-04-24 16:35 4.30298 -75.68220 20429 ft 429 kts 68°
2026-04-24 16:35 4.31392 -75.65439 20702 ft 429 kts 68°
2026-04-24 16:35 4.32486 -75.62657 20986 ft 431 kts 68°
2026-04-24 16:36 4.33585 -75.59862 21252 ft 431 kts 68°
2026-04-24 16:36 4.34687 -75.57058 21525 ft 433 kts 68°
2026-04-24 16:36 4.35790 -75.54252 21790 ft 434 kts 68°
2026-04-24 16:36 4.36898 -75.51435 22057 ft 435 kts 67°
2026-04-24 16:37 4.38167 -75.48678 22304 ft 436 kts 62°
2026-04-24 16:37 4.39612 -75.46001 22588 ft 437 kts 60°
2026-04-24 16:37 4.40592 -75.44240 22750 ft 438 kts 60°
2026-04-24 16:37 4.42584 -75.40674 23070 ft 440 kts 60°
2026-04-24 16:38 4.44079 -75.37993 23121 ft 441 kts 60°
2026-04-24 16:38 4.45575 -75.35308 23100 ft 442 kts 60°
2026-04-24 16:38 4.47073 -75.32616 23101 ft 443 kts 60°
2026-04-24 16:38 4.48574 -75.29918 23101 ft 443 kts 60°
2026-04-24 16:39 4.50071 -75.27225 23101 ft 443 kts 60°
2026-04-24 16:39 4.51568 -75.24533 23100 ft 443 kts 60°
2026-04-24 16:39 4.53068 -75.21835 23100 ft 443 kts 60°
2026-04-24 16:39 4.54560 -75.19150 23093 ft 436 kts 60°
2026-04-24 16:40 4.56006 -75.16546 23097 ft 419 kts 60°
2026-04-24 16:40 4.57394 -75.14047 23096 ft 403 kts 60°
2026-04-24 16:40 4.58737 -75.11627 22938 ft 392 kts 60°
2026-04-24 16:40 4.60048 -75.09267 22684 ft 384 kts 60°
2026-04-24 16:41 4.61314 -75.06990 22517 ft 374 kts 60°
2026-04-24 16:41 4.62562 -75.04741 22277 ft 366 kts 60°
2026-04-24 16:41 4.63792 -75.02527 21925 ft 362 kts 60°
2026-04-24 16:41 4.65011 -75.00333 21513 ft 359 kts 60°
2026-04-24 16:42 4.66223 -74.98151 21079 ft 357 kts 60°
2026-04-24 16:42 4.67425 -74.95987 20628 ft 353 kts 60°
2026-04-24 16:42 4.68614 -74.93845 20068 ft 351 kts 60°
2026-04-24 16:42 4.69795 -74.91717 19513 ft 348 kts 60°
2026-04-24 16:43 4.70970 -74.89601 18964 ft 346 kts 60°
2026-04-24 16:43 4.72136 -74.87501 18449 ft 343 kts 60°
2026-04-24 16:43 4.73292 -74.85417 17881 ft 341 kts 60°
2026-04-24 16:43 4.74449 -74.83352 17290 ft 338 kts 58°
2026-04-24 16:44 4.75719 -74.81390 16825 ft 334 kts 61°
2026-04-24 16:44 4.76625 -74.79259 16665 ft 333 kts 67°
2026-04-24 16:44 4.77480 -74.77095 16649 ft 334 kts 69°
2026-04-24 16:44 4.78313 -74.74922 16650 ft 335 kts 69°
2026-04-24 16:45 4.79150 -74.72741 16576 ft 336 kts 69°
2026-04-24 16:45 4.79993 -74.70559 16338 ft 335 kts 69°
2026-04-24 16:45 4.80836 -74.68384 16102 ft 334 kts 69°
2026-04-24 16:45 4.81676 -74.66224 15859 ft 332 kts 69°
2026-04-24 16:46 4.82513 -74.64073 15666 ft 330 kts 69°
2026-04-24 16:46 4.83336 -74.61961 15422 ft 329 kts 69°
2026-04-24 16:46 4.84166 -74.59830 15206 ft 327 kts 69°
2026-04-24 16:46 4.84996 -74.57700 14832 ft 327 kts 69°
2026-04-24 16:47 4.85818 -74.55592 14705 ft 324 kts 69°
2026-04-24 16:47 4.86637 -74.53488 14666 ft 324 kts 69°
2026-04-24 16:47 4.87460 -74.51378 14249 ft 324 kts 69°
2026-04-24 16:47 4.88272 -74.49295 13911 ft 317 kts 69°
2026-04-24 16:48 4.89057 -74.47281 13670 ft 304 kts 69°
2026-04-24 16:48 4.89810 -74.45347 13372 ft 294 kts 69°
2026-04-24 16:48 4.90482 -74.43433 12972 ft 289 kts 78°
2026-04-24 16:48 4.90556 -74.41454 12796 ft 284 kts 102°
2026-04-24 16:49 4.89807 -74.39643 12802 ft 283 kts 123°
2026-04-24 16:49 4.88666 -74.38022 12816 ft 285 kts 128°
2026-04-24 16:49 4.87456 -74.36447 12829 ft 285 kts 128°
2026-04-24 16:49 4.86230 -74.34883 12889 ft 285 kts 129°
2026-04-24 16:50 4.85404 -74.33859 12848 ft 285 kts 129°
2026-04-24 16:50 4.83771 -74.31765 12508 ft 282 kts 127°
2026-04-24 16:50 4.82618 -74.30226 12152 ft 267 kts 127°
2026-04-24 16:50 4.81544 -74.28789 11746 ft 249 kts 127°
2026-04-24 16:51 4.80542 -74.27458 11391 ft 234 kts 127°
2026-04-24 16:51 4.79588 -74.26192 11068 ft 221 kts 127°
2026-04-24 16:51 4.78690 -74.24997 10826 ft 208 kts 127°
2026-04-24 16:51 4.77841 -74.23868 10583 ft 197 kts 127°
2026-04-24 16:52 4.77041 -74.22804 10353 ft 186 kts 127°
2026-04-24 16:52 4.76280 -74.21793 10131 ft 179 kts 127°
2026-04-24 16:52 4.75529 -74.20794 9903 ft 179 kts 127°
2026-04-24 16:52 4.74776 -74.19793 9657 ft 180 kts 127°
2026-04-24 16:53 4.74022 -74.18791 9415 ft 180 kts 127°
2026-04-24 16:53 4.73270 -74.17791 9148 ft 179 kts 126°
2026-04-24 16:53 4.72523 -74.16798 8888 ft 179 kts 125°
2026-04-24 16:53 4.71770 -74.15796 8640 ft 180 kts 126°
2026-04-24 16:54 4.71033 -74.14802 8386 ft 172 kts 126°
2026-04-24 16:54 4.70368 -74.13921 8363 ft 138 kts 127°
2026-04-24 16:54 4.69896 -74.13301 8364 ft 86 kts 126°
2026-04-24 16:54 4.69646 -74.12969 8362 ft 37 kts 127°
2026-04-24 16:55 4.69493 -74.12769 8363 ft 40 kts 127°
2026-04-24 16:55 4.69324 -74.12544 8365 ft 27 kts 128°
2026-04-24 16:55 4.69185 -74.12521 8364 ft 19 kts 201°
2026-04-24 16:55 4.69139 -74.12601 8365 ft 11 kts 272°
2026-04-24 16:56 4.69154 -74.12647 8365 ft 3 kts 308°
2026-04-24 16:56 4.69160 -74.12654 8365 ft 1 kts 308°
2026-04-24 16:56 4.69190 -74.12694 8365 ft 13 kts 307°
2026-04-24 16:56 4.69265 -74.12794 8364 ft 23 kts 307°
2026-04-24 16:57 4.69360 -74.12920 8364 ft 21 kts 307°
2026-04-24 16:57 4.69438 -74.13023 8365 ft 16 kts 307°
2026-04-24 16:57 4.69500 -74.13104 8364 ft 14 kts 308°
2026-04-24 16:57 4.69564 -74.13187 8365 ft 15 kts 306°
2026-04-24 16:58 4.69631 -74.13278 8365 ft 20 kts 307°
2026-04-24 16:58 4.69716 -74.13391 8365 ft 18 kts 307°
2026-04-24 16:58 4.69784 -74.13480 8365 ft 14 kts 308°
2026-04-24 16:58 4.69834 -74.13544 8365 ft 9 kts 306°
2026-04-24 16:59 4.69870 -74.13593 8365 ft 10 kts 307°
2026-04-24 16:59 4.69924 -74.13665 8364 ft 16 kts 307°
2026-04-24 16:59 4.70091 -74.13887 8364 ft 23 kts 307°
2026-04-24 17:00 4.70179 -74.14001 8364 ft 18 kts 308°
2026-04-24 17:00 4.70305 -74.14168 8364 ft 18 kts 308°
2026-04-24 17:00 4.70376 -74.14263 8364 ft 12 kts 304°
2026-04-24 17:01 4.70398 -74.14310 8364 ft 7 kts 271°
2026-04-24 17:01 4.70389 -74.14330 8364 ft 3 kts 228°
2026-04-24 17:02 4.70342 -74.14364 8364 ft 6 kts 216°
2026-04-24 17:02 4.70285 -74.14404 8365 ft 13 kts 198°
2026-04-24 17:02 4.70223 -74.14372 8364 ft 7 kts 131°
2026-04-24 17:02 4.70186 -74.14323 8364 ft 13 kts 129°
2026-04-24 17:03 4.70121 -74.14311 8365 ft 0 kts 210°
2026-04-24 17:03 4.70111 -74.14315 8365 ft 0 kts 213°